Waarnemingen

Advertentie
Mijn weer
Tarbes/Ossun, Frankrijk (7621): temperatuur & dauwpunt: 08.08.2018 08:00:00 - 14.08.2018 08:00:00 (CEST)Tarbes/Ossun, Frankrijk (7621): temperatuur 5cm: 08.08.2018 08:00:00 - 14.08.2018 08:00:00 (CEST)Tarbes/Ossun, Frankrijk (7621): temperatuur -20cm & temperatuur -100cm: 08.08.2018 08:00:00 - 14.08.2018 08:00:00 (CEST)Tarbes/Ossun, Frankrijk (7621): windsnelheid & windstoten: 08.08.2018 08:00:00 - 14.08.2018 08:00:00 (CEST)Tarbes/Ossun, Frankrijk (7621): windrichting: 08.08.2018 08:00:00 - 14.08.2018 08:00:00 (CEST)Tarbes/Ossun, Frankrijk (7621): luchtdruk: 08.08.2018 08:00:00 - 14.08.2018 08:00:00 (CEST)Tarbes/Ossun, Frankrijk (7621): zicht: 08.08.2018 08:00:00 - 14.08.2018 08:00:00 (CEST)Tarbes/Ossun, Frankrijk (7621): Zonneschijnduur: 08.08.2018 08:00:00 - 14.08.2018 08:00:00 (CEST)Tarbes/Ossun, Frankrijk (7621): neerslag: 08.08.2018 08:00:00 - 14.08.2018 08:00:00 (CEST)
Datum & Tijd tt [°C] td [°C] tt 5cm [°C] tt -20cm [°C] tt -100cm [°C] ff [km/u] ff [kn] fx [km/u] fx [kn] dd ppp [hPa] vv [km] sd [min] rr [mm]
14.08.2018 08:00:00 16,3 14,5 16,4 20,3 19,2 11 6 24 13 ZW 1020,7 60 0 0,0
14.08.2018 07:00:00 15,9 14,8 16,5 20,4 19,2 19 10 31 17 ZW 1020,1 2,8 0 0,0
14.08.2018 06:00:00 15,8 14,8 16,5 20,4 19,2 13 7 23 13 WZW 1019,9 17 0 0,2
14.08.2018 05:00:00 16,1 15,0 16,4 20,5 19,2 13 7 39 21 W 1019,8 6 0 0,4
14.08.2018 04:00:00 16,6 15,0 14,2 20,5 19,2 14 7 23 12 W 1019,4 60 0 0,0
14.08.2018 03:00:00 15,5 14,7 14,2 20,6 19,2 5 3 13 7 ZZW 1019,4 60 0 0,0
14.08.2018 02:00:00 16,1 14,8 15,3 20,6 19,2 9 5 19 10 Z 1019,4 60 0 0,0
14.08.2018 01:00:00 16,5 15,4 15,4 20,7 19,2 9 5 22 12 ZW 1019,5 52 0 0,0
14.08.2018 00:00:00 17,4 15,9 17,1 20,7 19,2 13 7 32 17 WZW 1019,1 58 0 0,0
13.08.2018 23:00:00 17,6 16,1 17,7 20,8 19,2 14 7 29 16 W 1018,8 57 0 0,0
13.08.2018 22:00:00 17,8 16,3 18,1 20,8 19,2 16 9 32 17 W 1018,2 56 0 0,0
13.08.2018 21:00:00 17,9 16,4 18,8 20,8 19,2 19 11 34 18 W 1017,6 17 3 0,0
13.08.2018 20:00:00 18,2 17,0 19,4 20,8 19,2 17 9 31 17 ZW 1016,9 19 3 0,4
13.08.2018 19:00:00 18,6 17,3 20,6 20,8 19,2 18 10 32 17 WZW 1016,7 10 0 0,0
13.08.2018 18:00:00 19,3 17,3 21,0 20,9 19,2 12 6 20 11 WZW 1016,5 53 0 0,0
13.08.2018 17:00:00 18,8 17,3 20,5 20,9 19,2 11 6 36 19 W 1016,7 60 0 0,0
13.08.2018 16:00:00 18,4 17,4 20,5 20,9 19,2 4 2 13 7 NNW 1017,0 2,7 0 0,0
13.08.2018 15:00:00 18,1 17,1 18,8 20,9 19,2 6 3 13 7 W 1017,1 3,6 0 0,2
13.08.2018 14:00:00 17,9 17,1 18,6 20,9 19,2 11 6 31 17 NNW 1017,1 6 0 0,6
13.08.2018 13:00:00 20,6 17,8 21,6 20,9 19,2 14 7 32 17 NNW 1016,2 34 0 0,0
13.08.2018 12:00:00 21,0 16,8 22,5 20,9 19,2 12 7 34 18 WNW 1016,0 33 0 0,0
13.08.2018 11:00:00 21,0 17,2 20,6 20,9 19,2 10 6 22 12 W 1015,7 41 1 0,0
13.08.2018 10:00:00 20,5 17,3 19,9 20,9 19,2 6 3 11 6 N 1015,3 57 0 0,0
13.08.2018 09:00:00 19,6 17,7 18,8 21,0 19,2 10 5 12 7 Z 1014,4 34 1 0,0
13.08.2018 08:00:00 18,3 17,3 17,9 21,1 19,2 5 3 8 4 Z 1014,7 32 0 0,0
13.08.2018 07:00:00 17,9 16,9 17,1 21,1 19,2 5 3 9 5 Z 1014,5 19 0 0,0
13.08.2018 06:00:00 18,1 16,6 16,6 21,2 19,2 7 4 9 5 ZZO 1014,5 34 0 0,0
13.08.2018 05:00:00 18,4 16,9 18,2 21,3 19,2 5 3 13 7 ZO 1014,8 29 0 0,0
13.08.2018 04:00:00 18,3 17,1 18,0 21,3 19,2 8 4 12 6 ZZO 1015,0 20 0 0,0
13.08.2018 03:00:00 18,2 17,0 18,1 21,4 19,2 8 4 17 9 Z 1015,5 20 0 0,0
13.08.2018 02:00:00 18,5 17,2 18,7 21,4 19,2 8 4 20 11 Z 1016,1 18 0 0,0
13.08.2018 01:00:00 18,8 17,3 18,7 21,5 19,2 10 5 20 11 W 1016,0 20 0 0,0
13.08.2018 00:00:00 18,3 16,5 18,7 21,6 19,2 7 4 25 14 WZW 1015,6 29 0 0,6
12.08.2018 23:00:00 19,1 17,4 18,8 21,6 19,3 8 4 38 21 W 1015,4 11 0 1,2
12.08.2018 22:00:00 19,3 17,6 19,3 21,6 19,2 18 10 36 19 W 1014,9 4,6 0 3,0
12.08.2018 21:00:00 20,9 19,7 19,5 21,6 19,2 9 5 28 15 W 1014,1 0,5 0 0,0
12.08.2018 20:00:00 21,1 18,1 19,0 21,5 19,2 17 9 42 23 ZZW 1012,8 1,1 0 6,8
12.08.2018 19:00:00 22,4 16,9 20,4 21,4 19,2 25 14 43 23 ZO 1012,7 57 0 0,4
12.08.2018 18:00:00 27,7 20,5 24,6 21,2 19,3 14 8 23 13 W 1011,2 11 7 0,0
12.08.2018 17:00:00 31,0 20,3 32,3 20,9 19,2 8 5 19 10 NNW 1010,6 52 49 0,0
12.08.2018 16:00:00 31,0 20,3 36,2 20,8 19,2 7 4 19 10 NNO 1011,2 59 60 0,0
12.08.2018 15:00:00 30,5 21,0 36,6 20,6 19,2 11 6 21 12 N 1012,0 20 60 0,0
12.08.2018 14:00:00 30,0 20,6 36,3 20,5 19,3 9 5 22 12 NNO 1012,4 50 60 0,0
12.08.2018 13:00:00 29,7 18,2 32,3 20,4 19,3 7 4 15 8 N 1013,1 45 60 0,0
12.08.2018 12:00:00 28,4 19,9 28,6 20,4 19,3 6 4 15 8 N 1013,4 19 60 0,0
12.08.2018 11:00:00 26,7 18,8 24,5 20,4 19,3 5 3 10 5 NNW 1013,9 42 60 0,0
12.08.2018 10:00:00 25,1 18,3 20,7 20,5 19,3 3 1 10 5 Z 1014,1 18 60 0,0
12.08.2018 09:00:00 20,9 17,5 16,1 20,6 19,3 5 3 9 5 Z 1014,8 60 60 0,0
12.08.2018 08:00:00 17,5 16,2 14,3 20,7 19,3 4 2 10 6 ZZO 1015,3 28 35 0,0
12.08.2018 07:00:00 16,3 15,5 13,6 20,7 19,3 7 4 11 6 ZZO 1015,7 32 0 0,0
12.08.2018 06:00:00 15,7 14,6 13,7 20,8 19,3 6 4 8 5 Z 1016,0 39 0 0,0
12.08.2018 05:00:00 16,6 15,5 13,7 20,8 19,3 3 2 7 4 ZO 1016,5 39 0 0,0
12.08.2018 04:00:00 16,7 15,4 14,6 20,9 19,3 0 0 8 5 N 1017,1 19 0 0,0
12.08.2018 03:00:00 17,3 15,5 15,2 21,0 19,3 5 3 10 5 Z 1017,6 51 0 0,0
12.08.2018 02:00:00 17,9 16,2 15,0 21,0 19,3 7 4 10 5 ZZO 1018,2 48 0 0,0
12.08.2018 01:00:00 17,4 15,6 15,4 21,1 19,3 9 5 11 6 Z 1018,8 47 0 0,0
12.08.2018 00:00:00 17,8 16,0 15,7 21,1 19,3 6 4 9 5 Z 1019,2 58 0 0,0
11.08.2018 23:00:00 18,6 16,0 15,8 21,1 19,3 4 2 7 4 Z 1019,2 60 0 0,0
11.08.2018 22:00:00 22,5 15,1 16,6 21,1 19,3 3 2 10 5 ONO 1018,5 60 0 0,0
11.08.2018 21:00:00 24,1 15,0 19,7 21,0 19,3 5 3 16 9 NO 1018,2 60 41 0,0
11.08.2018 20:00:00 25,9 15,3 21,9 20,9 19,3 11 6 21 11 NO 1018,1 59 60 0,0
11.08.2018 19:00:00 27,1 16,1 24,9 20,7 19,3 11 6 25 13 ONO 1018,3 43 60 0,0
11.08.2018 18:00:00 27,5 16,1 28,3 20,6 19,3 10 6 23 12 ONO 1018,5 53 60 0,0
11.08.2018 17:00:00 27,3 16,0 31,3 20,3 19,3 10 5 26 14 ONO 1019,3 59 60 0,0
11.08.2018 16:00:00 26,7 16,0 32,9 20,2 19,3 11 6 26 14 NO 1020,1 35 60 0,0
11.08.2018 15:00:00 26,2 15,9 34,1 20,1 19,4 13 7 27 15 NO 1020,8 20 60 0,0
11.08.2018 14:00:00 25,6 15,6 33,4 20,0 19,3 13 7 26 14 NO 1021,5 60 60 0,0
11.08.2018 13:00:00 24,6 15,0 29,2 19,9 19,3 11 6 26 14 ONO 1022,3 60 60 0,0
11.08.2018 12:00:00 23,3 14,6 25,7 19,9 19,4 12 7 26 14 O 1022,8 45 60 0,0
11.08.2018 11:00:00 22,3 16,1 21,3 20,0 19,4 12 7 26 14 ONO 1023,2 60 60 0,0
11.08.2018 10:00:00 19,4 14,9 17,6 20,0 19,4 7 4 14 8 NO 1024,1 48 60 0,0
11.08.2018 09:00:00 17,0 14,6 14,2 20,1 19,4 4 2 8 4 NNO 1024,4 39 60 0,0
11.08.2018 08:00:00 14,3 13,7 11,2 20,2 19,4 5 3 7 4 ZZO 1024,6 38 34 0,0
11.08.2018 07:00:00 13,3 12,5 11,2 20,3 19,4 4 2 10 5 ZZO 1024,6 32 0 0,2
11.08.2018 06:00:00 13,0 12,2 11,4 20,4 19,4 6 4 8 4 Z 1024,7 20 0 0,0
11.08.2018 05:00:00 13,8 12,9 11,3 20,4 19,4 5 3 10 5 Z 1024,8 38 0 0,0
11.08.2018 04:00:00 14,4 13,6 12,2 20,5 19,5 2 1 10 5 ZO 1025,1 19 0 0,0
11.08.2018 03:00:00 15,0 13,7 13,5 20,6 19,5 6 3 11 6 Z 1025,4 52 0 0,0
11.08.2018 02:00:00 15,7 14,4 13,4 20,6 19,4 9 5 12 6 ZZO 1026,0 49 0 0,0
11.08.2018 01:00:00 15,2 14,1 13,0 20,7 19,5 7 4 10 6 Z 1026,2 20 0 0,0
11.08.2018 00:00:00 15,3 14,2 13,2 20,7 19,5 7 4 9 5 Z 1025,9 53 0 0,0
10.08.2018 23:00:00 17,0 15,0 14,1 20,7 19,5 5 3 7 4 ZW 1025,3 14 0 0,0
10.08.2018 22:00:00 19,4 14,6 17,4 20,7 19,5 3 2 7 4 O 1024,6 60 0 0,0
10.08.2018 21:00:00 20,5 14,6 19,1 20,7 19,4 6 3 10 5 O 1024,1 60 0 0,0
10.08.2018 20:00:00 21,1 13,8 19,8 20,6 19,5 8 4 16 8 ZO 1024,1 60 0 0,0
10.08.2018 19:00:00 21,7 14,3 22,2 20,5 19,5 6 3 13 7 O 1023,8 59 0 0,0
10.08.2018 18:00:00 21,7 14,1 22,6 20,5 19,5 8 5 22 12 O 1023,9 60 0 0,0
10.08.2018 17:00:00 21,9 14,0 23,6 20,4 19,5 9 5 21 12 OZO 1024,0 57 0 0,0
10.08.2018 16:00:00 21,8 13,4 24,1 20,3 19,5 9 5 22 12 O 1024,0 55 0 0,0
10.08.2018 15:00:00 21,7 13,8 25,0 20,2 19,5 9 5 22 12 O 1024,2 58 23 0,0
10.08.2018 14:00:00 20,4 13,6 24,5 20,2 19,5 11 6 19 10 O 1024,9 60 6 0,0
10.08.2018 13:00:00 20,5 13,5 22,7 20,2 19,5 8 5 21 12 OZO 1025,3 55 17 0,0
10.08.2018 12:00:00 19,0 13,4 22,2 20,2 19,5 5 3 16 9 ONO 1025,7 60 13 0,0
10.08.2018 11:00:00 18,2 13,3 19,2 20,2 19,5 6 3 14 8 ONO 1025,8 58 0 0,0
10.08.2018 10:00:00 16,8 13,7 18,0 20,2 19,5 6 3 14 7 O 1025,9 60 0 0,0
10.08.2018 09:00:00 16,2 14,2 16,5 20,2 19,5 5 3 10 5 ONO 1025,9 60 0 0,0
10.08.2018 08:00:00 15,6 14,1 15,7 20,3 19,5 0 0 9 5 N 1025,7 10 0 0,0
10.08.2018 07:00:00 15,5 14,0 15,5 20,3 19,5 6 4 9 5 ZO 1025,2 60 0 0,0
10.08.2018 06:00:00 15,5 14,2 15,7 20,4 19,5 5 3 10 5 Z 1025,0 57 0 0,0
10.08.2018 05:00:00 15,7 14,2 15,8 20,4 19,5 5 3 11 6 Z 1025,2 58 0 0,0
10.08.2018 04:00:00 15,8 14,2 15,8 20,5 19,5 6 3 10 5 Z 1025,1 60 0 0,0
10.08.2018 03:00:00 16,3 14,5 16,3 20,5 19,5 5 3 11 6 Z 1025,4 60 0 0,0
10.08.2018 02:00:00 16,2 14,6 16,0 20,6 19,5 3 2 8 4 ZZW 1025,4 60 0 0,0
10.08.2018 01:00:00 16,2 14,2 16,2 20,6 19,5 5 3 9 5 WZW 1025,1 60 0 0,0
10.08.2018 00:00:00 16,4 14,8 16,2 20,7 19,6 8 4 10 5 ZZW 1024,8 60 0 0,0
09.08.2018 23:00:00 16,4 14,8 16,2 20,7 19,5 6 4 13 7 ZZO 1024,5 60 0 0,0
09.08.2018 22:00:00 16,0 14,9 16,2 20,7 19,5 11 6 24 13 Z 1024,1 60 0 0,0
09.08.2018 21:00:00 16,0 14,5 16,4 20,7 19,5 6 4 14 7 ZZW 1023,8 60 0 0,0
09.08.2018 20:00:00 16,0 14,4 16,5 20,8 19,5 13 7 23 12 N 1023,6 18 0 0,0
09.08.2018 19:00:00 17,7 14,0 18,1 20,8 19,5 8 4 18 10 ZZW 1022,9 18 0 0,0
09.08.2018 18:00:00 17,7 13,6 18,1 20,8 19,5 13 7 25 14 WZW 1022,6 60 0 0,0
09.08.2018 17:00:00 17,2 14,5 18,5 20,9 19,5 21 12 34 19 W 1022,1 15 0 0,0
09.08.2018 16:00:00 19,2 14,7 20,7 21,0 19,5 16 8 32 17 W 1021,0 55 0 0,0
09.08.2018 15:00:00 17,9 13,8 19,0 21,0 19,5 18 10 35 19 WZW 1021,1 59 0 0,0
09.08.2018 14:00:00 17,6 13,9 18,8 21,1 19,5 23 12 37 20 W 1021,0 53 0 0,0
09.08.2018 13:00:00 17,8 13,9 19,0 21,2 19,5 21 11 47 25 WZW 1020,3 60 0 0,0
09.08.2018 12:00:00 17,4 14,3 18,4 21,2 19,5 25 14 52 28 WZW 1019,8 54 0 0,0
09.08.2018 11:00:00 16,9 14,5 17,8 21,3 19,5 22 12 47 25 W 1019,2 18 0 0,2
09.08.2018 10:00:00 16,6 14,4 17,9 21,4 19,5 19 10 42 23 WZW 1017,9 60 0 0,0
09.08.2018 09:00:00 16,6 14,2 16,7 21,5 19,5 22 12 58 32 W 1017,3 50 0 0,0
09.08.2018 08:00:00 16,8 13,7 16,6 21,6 19,6 27 14 54 29 W 1016,0 60 0 0,0
09.08.2018 07:00:00 16,7 14,7 16,7 21,6 19,5 32 18 53 29 W 1014,2 60 0 0,0
09.08.2018 06:00:00 16,9 15,4 16,9 21,7 19,5 26 14 66 36 W 1014,0 20 0 0,2
09.08.2018 05:00:00 19,2 18,7 19,3 21,8 19,5 27 15 41 22 W 1011,9 8 0 0,0
09.08.2018 04:00:00 18,7 18,2 15,7 21,9 19,5 17 9 27 15 WZW 1010,5 6 0 0,0
09.08.2018 03:00:00 17,8 17,3 15,5 21,9 19,5 6 3 14 8 W 1010,2 7 0 0,0
09.08.2018 02:00:00 17,5 17,0 15,1 22,0 19,5 4 2 11 6 ZW 1010,1 6 0 0,0
09.08.2018 01:00:00 17,7 16,9 15,5 22,1 19,5 4 2 12 7 NO 1010,2 0,7 0 0,0
09.08.2018 00:00:00 19,2 18,2 17,7 22,1 19,5 8 5 14 8 OZO 1011,0 11 0 0,0
08.08.2018 23:00:00 19,6 18,3 18,2 22,1 19,5 7 4 22 12 W 1011,4 11 0 0,6
08.08.2018 22:00:00 21,0 18,2 19,3 22,1 19,5 14 8 20 11 WZW 1011,9 26 0 0,0
08.08.2018 21:00:00 22,3 17,4 20,0 22,1 19,5 5 3 20 11 ZZO 1010,9 18 3 0,0
08.08.2018 20:00:00 23,7 17,4 21,9 22,0 19,5 11 6 17 9 OZO 1010,9 44 30 0,0
08.08.2018 19:00:00 24,0 17,3 23,8 21,9 19,5 10 6 19 10 ZO 1011,4 47 1 0,0
08.08.2018 18:00:00 24,4 17,6 25,5 21,9 19,5 9 5 21 12 O 1011,6 51 3 0,0
08.08.2018 17:00:00 24,5 17,0 27,2 21,8 19,5 11 6 20 11 O 1012,2 39 13 0,0
08.08.2018 16:00:00 24,5 17,2 27,0 21,7 19,5 9 5 22 12 O 1012,8 53 3 0,0
08.08.2018 15:00:00 24,0 17,3 25,8 21,7 19,5 13 7 26 14 O 1013,4 38 1 0,0
08.08.2018 14:00:00 23,6 17,1 25,8 21,6 19,5 8 5 23 12 O 1013,9 50 4 0,0
08.08.2018 13:00:00 22,6 16,4 25,7 21,6 19,5 10 5 24 13 ONO 1014,5 47 20 0,0
08.08.2018 12:00:00 22,4 17,3 23,8 21,6 19,5 15 8 25 13 ZZO 1014,8 39 43 0,0
08.08.2018 11:00:00 20,8 16,8 21,7 21,6 19,5 11 6 26 14 O 1015,4 38 0 0,0
08.08.2018 10:00:00 19,5 16,5 19,6 21,7 19,5 9 5 17 9 OZO 1015,9 54 3 0,0
08.08.2018 09:00:00 18,0 16,5 18,2 21,7 19,5 6 4 13 7 ZO 1016,0 37 0 0,0
08.08.2018 08:00:00 17,3 16,2 17,7 21,8 19,5 7 4 12 7 ZZO 1016,2 34 0 0,0

tt = temperatuur
td = dauwpunt
tt 5cm = temperatuur 5cm
tt -20cm = temperatuur -20cm
tt -100cm = temperatuur -100cm
ff = windsnelheid
fx = windstoten
dd = windrichting
ppp = luchtdruk
vv = zicht
sd = Zonneschijnduur
rr = neerslag

Weerstations in de omgeving